This demonstration page uses our WeatherBlox Daily Observations layout. Learn more.

38.88101, -77.10428

Hourly Observations for September 28, 2018

Temp ( °F °C ) Dew Point ( °F °C ) Humidity (%) Winds ( mph kmh ) Pressure ( in mb ) Visibility ( mi km ) Precip ( " mm )
12:02 am 00:02 Cloudy with Light Thunderstorms 60 15.6 58 14.4 93 93 N 5 7 30 1016 5 8.0467 0.05 1.27
12:25 am 00:25 Cloudy with Light Rain 61 16.1 58 14.4 90 90 NNW 7 11 30 1016 2.5 4.02335 0.06 1.524
12:52 am 00:52 Cloudy with Light Rain 61 16.1 58 14.4 90 90 NW 10 17 30 1016 3 4.82802 0.09 2.286
1:15 am 01:15 Cloudy with Light Rain 60 15.6 58 14.4 93 93 N 8 13 29.97 1015 7 11.26538 0 0.0254
1:27 am 01:27 Cloudy with Light Rain 60 15.6 58 14.4 93 93 NW 9 15 30 1016 7 11.26538 0.02 0.508
1:52 am 01:52 Cloudy with Heavy Rain 60 15.6 57 13.9 90 90 WNW 10 17 30 1016 5 8.0467 0.06 1.524
2:13 am 02:13 Cloudy with Rain 60 15.6 57 13.9 90 90 NW 9 15 30 1016 4 6.43736 0.18 4.572
2:20 am 02:20 Cloudy with Light Rain 60 15.6 57 13.9 90 90 VRB 7 11 29.97 1015 6 9.65604 0.2 5.08
2:27 am 02:27 Cloudy with Nearby Thunderstorms 60 15.6 57 13.9 90 90 VRB 5 7 29.97 1015 10 16.0934 0.21 5.334
2:43 am 02:43 Cloudy with Heavy Rain 60 15.6 57 13.9 90 90 Calm 29.97 1015 4 6.43736 0.27 6.858
2:47 am 02:47 Cloudy with Rain 61 16 57 14 88 88 ENE 3 6 29.97 1015 5 8.0467 0.28 7.112
2:52 am 02:52 Cloudy with Light Rain 60 15.6 57 13.9 90 90 E 3 6 29.95 1014 6 9.65604 0.29 7.366
3:15 am 03:15 Cloudy with Light Rain 60 15.6 57 13.9 90 90 NNW 5 7 29.94 1014 10 16.0934 0.01 0.254
3:18 am 03:18 Cloudy with Light Rain 60 15.6 57 13.9 90 90 NW 7 11 29.94 1014 10 16.0934 0.01 0.254
3:52 am 03:52 Cloudy with Light Rain 60 15.6 57 13.9 90 90 NW 8 13 29.95 1014 10 16.0934 0.02 0.508
4:00 am 04:00 Cloudy with Light Rain 60 15.6 57 13.9 90 90 NW 10 17 29.97 1015 10 16.0934 0 0.0254
4:38 am 04:38 Cloudy with Light Rain 60 15.6 57 13.9 90 90 NNW 5 7 29.97 1015 10 16.0934 0 0.0254
4:45 am 04:45 Cloudy 60 15.6 56 13.3 86 86 NW 6 9 29.97 1015 10 16.0934 0 0.0254
4:52 am 04:52 Cloudy 60 15.5 53 11.7 78 78 WNW 6 9 29.97 1015 10 16.0934 0 0.0254
5:27 am 05:27 Cloudy 60 15.6 56 13.3 86 86 Calm 29.97 1015 10 16.0934 0 0.0254
5:42 am 05:42 Cloudy 60 15.6 56 13.3 86 86 NW 6 9 29.97 1015 10 16.0934 0 0.0254
5:52 am 05:52 Cloudy 60 15.6 56 13.3 86 86 NW 7 11 29.99 1016 10 16.0934 0 0
6:43 am 06:43 Mostly Cloudy 61 16 57 14 88 88 NNW 9 15 30.03 1017 10 16.0934 0 0
6:52 am 06:52 Mostly Cloudy 60 15.5 57 13.9 90 90 NNW 9 15 30.02 1017 10 16.0934 0 0
7:20 am 07:20 Mostly Cloudy 61 16.1 53 11.7 75 75 NNW 8 13 30.03 1017 10 16.0934 0 0
7:52 am 07:52 Sunny 61 16.1 56 13.3 84 84 WNW 7 11 30.05 1018 10 16.0934 0 0
8:52 am 08:52 Partly Cloudy 62 16.7 55 12.8 78 78 NNW 12 19 30.07 1018 10 16.0934 0 0
9:11 am 09:11 Mostly Cloudy 62 16.7 55 12.8 78 78 NNW 8 13 30.09 1019 10 16.0934 0 0
9:47 am 09:47 Mostly Cloudy 64 18 55 13 73 73 NW 12 19 30.12 1020 10 16.0934 0 0
9:52 am 09:52 Mostly Cloudy 65 18.3 56 13.3 73 73 NW 9 15 30.1 1019 10 16.0934 0 0
10:52 am 10:52 Mostly Cloudy 66 18.9 56 13.3 70 70 NNW 9 15 30.11 1020 10 16.0934 0 0
11:26 am 11:26 Mostly Cloudy 67 19.4 56 13.3 68 68 NNW 9 15 30.12 1020 10 16.0934 0 0
11:52 am 11:52 Mostly Cloudy 68 20 57 13.9 68 68 NW 10 17 30.11 1020 10 16.0934 0 0
12:12 pm 12:12 Mostly Cloudy 69 20.6 57 13.9 66 66 NW 10 17 30.12 1020 10 16.0934 0 0
12:52 pm 12:52 Mostly Cloudy 71 21.7 57 13.9 61 61 N 6 9 30.11 1020 10 16.0934 0 0
1:52 pm 13:52 Mostly Cloudy 74 23.3 58 14.4 57 57 VRB 3 6 30.09 1019 10 16.0934 0 0
2:52 pm 14:52 Mostly Cloudy 73 22.8 56 13.3 55 55 Calm 30.09 1019 10 16.0934 0 0
3:52 pm 15:52 Mostly Cloudy 76 24.4 58 14.4 54 54 Calm 30.09 1019 10 16.0934 0 0
4:52 pm 16:52 Mostly Cloudy 76 24.4 58 14.4 54 54 NW 6 9 30.09 1019 10 16.0934 0 0
5:52 pm 17:52 Mostly Cloudy 75 23.9 56 13.3 52 52 WNW 7 11 30.1 1019 10 16.0934 0 0
6:52 pm 18:52 Partly Cloudy 71 21.7 58 14.4 63 63 NE 3 6 30.11 1020 10 16.0934 0 0
7:52 pm 19:52 Mostly Cloudy 68 20 59 15 73 73 S 6 9 30.12 1020 10 16.0934 0 0
8:52 pm 20:52 Mostly Cloudy 67 19.4 61 16.1 81 81 S 7 11 30.14 1021 10 16.0934 0 0
9:52 pm 21:52 Mostly Cloudy 66 18.9 62 16.7 87 87 S 6 9 30.15 1021 10 16.0934 0 0
10:52 pm 22:52 Mostly Cloudy 65 18.3 61 16.1 87 87 Calm 30.16 1021 10 16.0934 0 0
11:52 pm 23:52 Mostly Clear 65 18.3 61 16.1 87 87 Calm 30.16 1021 10 16.0934 0 0

Powered by AerisWeather